Home > Time Zones > World Clock > Weather > Niue > Alofi > Past weeks

Weather past 2 weeks in Alofi, Niue

Now
79 °F

Rain. Overcast.


Feels Like: 82 °F
Forecast: 78 / 84 °F
Wind: 14 mph from Southeast

Location: Haapai

Current Time: Mar 27, 2015 at 1:55:55 AM

Latest Report: Mar 27, 2015 at 1:00 AM


Visibility: N/A

Pressure: 29.86 "Hg

Humidity: 84%

Dew point: 73 °F

Location of AlofiLocation

Historic Weather in Alofi — Graph

°F

Alofi temperature yesterday

Maximum temperature yesterday: 84 °F (at 1:00 PM)
Minimum temperature yesterday: 75 °F (at 1:00 AM)
Average temperature yesterday: 80 °F

Past Weeks' High & Low Weather Summary

 TemperatureHumidityPressure
High90 °F (Mar 16, 1:00 PM)100% (Mar 13, 6:00 AM)29.89 "Hg (Mar 13, 6:00 AM)
Low75 °F (Mar 26, 1:00 AM)66% (Mar 19, 6:00 AM)29.56 "Hg (Mar 21, 7:00 AM)
Average83 °F84%29.76 "Hg
* Reported Mar 12 6:00 AM — Mar 27 1:00 AM, Alofi, Weather by CustomWeather, © 2015

Note: Actual official high and low records may vary slightly from our data, if they occured in-between our weather recording intervals... More about our weather records

Advertising

Alofi weather history for previous 24 hours

 ConditionsComfort  
Time TempWeatherWind HumidityBarometerVisibility
1:00 AM
Fri, Mar 27
79 °FRain. Overcast.14 mph84%29.86 "HgN/A
7:00 PM
Thu, Mar 26
75 °FSprinkles. Mostly cloudy.No wind94%29.83 "HgN/A
6:00 PM79 °FPartly sunny.6 mph89%29.80 "HgN/A
5:00 PM81 °FPartly sunny.N/A84%29.80 "HgN/A
4:00 PM84 °FPartly sunny.7 mph74%29.80 "HgN/A
3:00 PM84 °FPartly sunny.6 mph74%29.80 "HgN/A
2:00 PM84 °FPartly sunny.6 mph74%29.80 "HgN/A
1:00 PM84 °FPartly sunny.6 mph74%29.83 "HgN/A
12:00 PM82 °FPartly sunny.6 mph79%29.86 "HgN/A
11:00 AM82 °FPartly sunny.No wind79%29.86 "HgN/A
10:00 AM81 °FPartly sunny.6 mph89%29.86 "HgN/A
9:00 AM79 °FPartly sunny.No wind89%29.86 "HgN/A
8:00 AM77 °FScattered clouds.6 mph94%29.86 "HgN/A
7:00 AM75 °FPassing clouds.No wind94%29.83 "HgN/A
6:00 AM75 °FPassing clouds.No wind94%29.83 "HgN/A
1:00 AM75 °FPassing clouds.No wind94%29.86 "HgN/A
Weather by CustomWeather, © 2015

See weather overviewHow to use our weather pages